This is the latest recevied weather packets stored in our database for station/object K4GSL. If no packets are shown the sender has not sent any weather packets the latest 10 day(s).
| Time | Temp. | Humidity | Pressure | Rain* | Wind** | Luminosity | Snow |
|---|---|---|---|---|---|---|---|
| 1778030246 | 18.89° C | 72% | 1019.6 hPa | 0 mm | - | 144 W/m² | - |
| 1778029941 | 18.33° C | 73% | 1019.5 hPa | 0 mm | - | 45 W/m² | - |
| 1778029640 | 18.89° C | 73% | 1019.3 hPa | 0 mm | - | 46 W/m² | - |
| 1778029337 | 18.33° C | 73% | 1019.5 hPa | 0 mm | - | 65 W/m² | - |
| 1778029034 | 17.22° C | 77% | 1019.4 hPa | 0 mm | - | 91 W/m² | - |
| 1778028731 | 17.22° C | 77% | 1019.5 hPa | 0 mm | - | 75 W/m² | - |
| 1778028427 | 17.22° C | 77% | 1019.5 hPa | 0 mm | - | 99 W/m² | - |
| 1778028125 | 17.78° C | 76% | 1019.4 hPa | 0 mm | - | 117 W/m² | - |
| 1778027820 | 17.78° C | 76% | 1019.4 hPa | 0 mm | - | 128 W/m² | - |
| 1778027517 | 17.78° C | 76% | 1019.7 hPa | 0 mm | - | 126 W/m² | - |
| 1778027213 | 17.78° C | 76% | 1019.5 hPa | 0 mm | - | 128 W/m² | - |
| 1778026909 | 17.22° C | 77% | 1019.3 hPa | 0 mm | - | 118 W/m² | - |
| 1778026605 | 17.22° C | 77% | 1019.6 hPa | 0 mm | - | 126 W/m² | - |
| 1778026302 | 17.78° C | 76% | 1019.4 hPa | 0 mm | - | 135 W/m² | - |
| 1778025999 | 17.78° C | 76% | 1019.4 hPa | 0 mm | - | 134 W/m² | - |
| 1778025697 | 17.78° C | 77% | 1019.4 hPa | 0 mm | - | 144 W/m² | - |
| 1778025395 | 17.78° C | 75% | 1019.5 hPa | 0 mm | - | 158 W/m² | - |
| 1778025092 | 17.78° C | 76% | 1019.5 hPa | 0 mm | - | 161 W/m² | - |
| 1778024788 | 17.78° C | 75% | 1019.6 hPa | 0 mm | - | 163 W/m² | - |
| 1778024485 | 17.78° C | 74% | 1019.6 hPa | 0 mm | - | 170 W/m² | - |
| 1778024183 | 17.78° C | 75% | 1019.8 hPa | 0 mm | - | 164 W/m² | - |
| 1778023880 | 17.78° C | 75% | 1019.7 hPa | 0 mm | - | 162 W/m² | - |
| 1778023578 | 17.22° C | 76% | 1019.8 hPa | 0 mm | - | 183 W/m² | - |
| 1778023275 | 17.22° C | 76% | 1020 hPa | 0 mm | - | 161 W/m² | - |
| 1778022972 | 17.78° C | 75% | 1019.9 hPa | 0 mm | - | 193 W/m² | - |
* Rain latest hour (hover to see other rain measurements)
** Current wind speed in m/s (hover to see current wind gust speed)